Date String (YYYY-MM-DD hh:mm:ss) UTC,Instrument flags,Ambient pressure (hPa),Sample flow (lpm),Bypass flow (lpm),Sample temperature (°C),Ambient temperature (°C),ASC tube jacket temperature (°C),LED temperature (°C),Box temperature (°C),Sample RH (%),Span deviation,Mass concentration (μg/m³),Mass concentration (μg/m³),Mass concentration (μg/m³)
DateTimeUTC,F1_M11,P_M11,Q1_M11,Q2_M11,T1_M11,T2_M11,T3_M11,T4_M11,T5_M11,U1_M11,ZSPAN_M11,X0_M11,X2_M11,X1_M11
2022-02-03 02:00:00,,0828.3,5.00,0.00,22.5,22.2,00.0,31.4,24.3,04.7,0000.0,0007.66,0004.36,0004.05
2022-02-03 02:01:00,,0828.3,4.99,0.00,22.5,21.9,00.0,31.4,24.2,04.7,0000.0,0007.68,0004.35,0004.05
2022-02-03 02:02:00,,0828.3,5.02,0.00,22.4,21.7,00.0,31.4,24.1,04.7,0000.0,0007.76,0004.39,0004.05
2022-02-03 02:03:00,,0828.3,4.99,0.00,22.4,21.6,00.0,31.3,24.0,04.8,0000.0,0007.80,0004.41,0004.07
2022-02-03 02:04:00,,0828.3,5.02,0.00,22.3,21.5,00.0,31.3,24.0,04.8,0000.0,0007.45,0004.41,0004.09
2022-02-03 02:05:00,,0828.3,4.99,0.00,22.3,21.3,00.0,31.3,23.9,04.8,0000.0,0006.49,0004.38,0004.09
2022-02-03 02:06:00,,0828.2,5.01,0.00,22.3,21.4,00.0,31.3,23.9,04.8,0000.0,0006.57,0004.41,0004.10
2022-02-03 02:07:00,,0828.3,4.98,0.00,22.3,22.0,00.0,31.3,24.0,04.8,0000.0,0006.46,0004.42,0004.12
2022-02-03 02:08:00,,0828.3,5.01,0.00,22.4,22.8,00.0,31.3,24.3,04.7,0000.0,0006.43,0004.42,0004.12
2022-02-03 02:09:00,,0828.3,5.00,0.00,22.6,23.1,00.0,31.4,24.4,04.7,0000.0,0006.38,0004.42,0004.14
2022-02-03 02:10:00,,0828.3,5.00,0.00,22.6,22.8,00.0,31.4,24.4,04.7,0000.0,0006.44,0004.44,0004.16
2022-02-03 02:11:00,,0828.3,5.00,0.00,22.6,22.5,00.0,31.4,24.4,04.7,0000.0,0006.41,0004.45,0004.17
2022-02-03 02:12:00,,0828.3,5.00,0.00,22.5,22.2,00.0,31.4,24.3,04.7,0000.0,0006.25,0004.44,0004.19
2022-02-03 02:13:00,,0828.3,4.99,0.00,22.5,22.0,00.0,31.4,24.2,04.7,0000.0,0006.45,0004.47,0004.21
2022-02-03 02:14:00,,0828.3,5.01,0.00,22.5,21.8,00.0,31.4,24.1,04.7,0000.0,0006.53,0004.49,0004.22
2022-02-03 02:15:00,,0828.3,5.00,0.00,22.4,21.6,00.0,31.4,24.1,04.7,0000.0,0006.46,0004.48,0004.23
2022-02-03 02:16:00,,0828.3,5.01,0.00,22.4,21.4,00.0,31.4,24.0,04.7,0000.0,0006.56,0004.52,0004.25
2022-02-03 02:17:00,,0828.3,5.00,0.00,22.3,21.3,00.0,31.4,23.9,04.8,0000.0,0006.48,0004.50,0004.26
2022-02-03 02:18:00,,0828.3,5.00,0.00,22.3,21.5,00.0,31.4,23.9,04.8,0000.0,0006.41,0004.49,0004.26
2022-02-03 02:19:00,,0828.4,5.01,0.00,22.4,22.2,00.0,31.4,24.1,04.7,0000.0,0006.39,0004.49,0004.26
2022-02-03 02:20:00,,0828.3,5.00,0.00,22.5,23.0,00.0,31.4,24.4,04.7,0000.0,0006.53,0004.51,0004.25
2022-02-03 02:21:00,,0828.3,5.00,0.00,22.6,23.1,00.0,31.4,24.5,04.7,0000.0,0006.62,0004.52,0004.25
2022-02-03 02:22:00,,0828.4,5.00,0.00,22.6,22.8,00.0,31.4,24.5,04.7,0000.0,0006.78,0004.55,0004.26
2022-02-03 02:23:00,,0828.4,4.99,0.00,22.6,22.5,00.0,31.5,24.4,04.7,0000.0,0006.94,0004.57,0004.27
2022-02-03 02:24:00,,0828.4,4.99,0.00,22.6,22.2,00.0,31.5,24.3,04.7,0000.0,0006.77,0004.57,0004.27
2022-02-03 02:25:00,,0828.4,5.01,0.00,22.5,21.9,00.0,31.5,24.2,04.7,0000.0,0006.84,0004.55,0004.27
2022-02-03 02:26:00,,0828.5,4.99,0.00,22.5,21.7,00.0,31.4,24.1,04.7,0000.0,0007.40,0004.56,0004.26
2022-02-03 02:27:00,,0828.5,5.01,0.00,22.4,21.5,00.0,31.4,24.1,04.7,0000.0,0007.42,0004.55,0004.25
2022-02-03 02:28:00,,0828.5,4.99,0.00,22.4,21.4,00.0,31.4,24.0,04.7,0000.0,0007.45,0004.56,0004.24
2022-02-03 02:29:00,,0828.7,4.99,0.00,22.4,21.3,00.0,31.4,24.0,04.8,0000.0,0007.46,0004.56,0004.25
2022-02-03 02:30:00,,0829.0,5.01,0.00,22.4,21.7,00.0,31.4,24.0,04.8,0000.0,0007.47,0004.56,0004.24
2022-02-03 02:31:00,,0829.1,5.00,0.00,22.5,22.5,00.0,31.4,24.2,04.7,0000.0,0007.42,0004.55,0004.24
2022-02-03 02:32:00,,0829.0,5.01,0.00,22.6,23.1,00.0,31.5,24.5,04.7,0000.0,0007.39,0004.54,0004.25
2022-02-03 02:33:00,,0829.1,5.01,0.00,22.7,23.0,00.0,31.5,24.5,04.7,0000.0,0007.33,0004.52,0004.24
2022-02-03 02:34:00,,0829.0,5.01,0.00,22.7,22.7,00.0,31.5,24.5,04.6,0000.0,0007.17,0004.50,0004.23
2022-02-03 02:35:00,,0828.9,5.00,0.00,22.6,22.4,00.0,31.5,24.4,04.7,0000.0,0007.04,0004.46,0004.22
2022-02-03 02:36:00,,0828.7,4.99,0.00,22.6,22.1,00.0,31.5,24.3,04.7,0000.0,0006.92,0004.45,0004.20
2022-02-03 02:37:00,,0828.5,5.00,0.00,22.6,21.8,00.0,31.5,24.2,04.7,0000.0,0006.20,0004.43,0004.21
2022-02-03 02:38:00,,0828.9,5.00,0.00,22.5,21.7,00.0,31.5,24.1,04.7,0000.0,0006.14,0004.43,0004.21
2022-02-03 02:39:00,,0828.6,5.00,0.00,22.4,21.5,00.0,31.4,24.1,04.7,0000.0,0006.09,0004.41,0004.20
2022-02-03 02:40:00,,0828.6,5.02,0.00,22.4,21.3,00.0,31.4,24.0,04.7,0000.0,0006.06,0004.40,0004.19
2022-02-03 02:41:00,,0828.7,4.99,0.00,22.3,21.3,00.0,31.4,23.9,04.7,0000.0,0006.29,0004.42,0004.18
2022-02-03 02:42:00,,0828.7,5.01,0.00,22.4,21.9,00.0,31.4,24.0,04.7,0000.0,0006.27,0004.40,0004.17
2022-02-03 02:43:00,,0828.9,5.00,0.00,22.5,22.6,00.0,31.4,24.3,04.7,0000.0,0006.19,0004.38,0004.15
2022-02-03 02:44:00,,0828.8,5.00,0.00,22.6,23.1,00.0,31.5,24.5,04.7,0000.0,0006.11,0004.36,0004.13
2022-02-03 02:45:00,,0828.7,5.00,0.00,22.7,22.9,00.0,31.5,24.5,04.6,0000.0,0006.05,0004.34,0004.12
2022-02-03 02:46:00,,0828.6,5.00,0.00,22.6,22.6,00.0,31.5,24.4,04.6,0000.0,0006.02,0004.34,0004.11
2022-02-03 02:47:00,,0828.6,5.00,0.00,22.6,22.2,00.0,31.5,24.4,04.6,0000.0,0006.06,0004.33,0004.10
2022-02-03 02:48:00,,0828.6,5.01,0.00,22.6,22.0,00.0,31.5,24.3,04.6,0000.0,0006.14,0004.33,0004.09
2022-02-03 02:49:00,,0828.6,4.99,0.00,22.5,21.8,00.0,31.5,24.2,04.6,0000.0,0006.36,0004.35,0004.09
2022-02-03 02:50:00,,0828.6,5.01,0.00,22.5,21.7,00.0,31.5,24.1,04.6,0000.0,0006.39,0004.37,0004.10
2022-02-03 02:51:00,,0828.6,4.99,0.00,22.5,21.6,00.0,31.5,24.1,04.7,0000.0,0006.41,0004.38,0004.11
2022-02-03 02:52:00,,0828.6,5.00,0.00,22.4,21.4,00.0,31.4,24.0,04.7,0000.0,0006.39,0004.41,0004.12
2022-02-03 02:53:00,,0828.8,5.00,0.00,22.4,21.3,00.0,31.4,24.0,04.7,0000.0,0006.71,0004.42,0004.12
2022-02-03 02:54:00,,0828.6,4.99,0.00,22.4,21.7,00.0,31.4,24.0,04.7,0000.0,0006.76,0004.43,0004.13
2022-02-03 02:55:00,,0828.6,5.00,0.00,22.5,22.5,00.0,31.5,24.2,04.6,0000.0,0006.73,0004.43,0004.15
2022-02-03 02:56:00,,0828.7,4.99,0.00,22.6,23.1,00.0,31.5,24.5,04.6,0000.0,0006.77,0004.45,0004.16
2022-02-03 02:57:00,,0828.6,5.00,0.00,22.7,23.0,00.0,31.5,24.6,04.6,0000.0,0006.93,0004.48,0004.18
2022-02-03 02:58:00,,0828.7,5.02,0.00,22.7,22.7,00.0,31.5,24.5,04.6,0000.0,0006.91,0004.49,0004.20
2022-02-03 02:59:00,,0828.6,4.99,0.00,22.7,22.4,00.0,31.5,24.4,04.6,0000.0,0007.00,0004.50,0004.20
